• In Hungary
  • List of Countries
  • For 7 days
  • Water Temperature
  • Satellite Maps
  • Weather Map
  • News
  • Weather Widgets
  • user-avatar
    Login

    Hourly Weather Proszowice

    Today, 20 August, Monday

    Time Temperature Precipitation Wind Pressure Humidity
    00:00 +21°C° 0 mm 2 mps 745 mmHg 72%
    01:00 +21°C° 0 mm 1 mps 745 mmHg 75%
    02:00 +21°C° 0 mm 1 mps 745 mmHg 75%
    03:00 +21°C° 0 mm 1 mps 745 mmHg 75%
    04:00 +21°C° 0 mm 1 mps 745 mmHg 75%
    05:00 +22°C° 0 mm 1 mps 745 mmHg 71%
    06:00 +24°C° 0 mm 1 mps 745 mmHg 67%
    07:00 +25°C° 0 mm 1 mps 744 mmHg 63%
    08:00 +27°C° 0 mm 1 mps 744 mmHg 57%
    09:00 +28°C° 0 mm 2 mps 744 mmHg 52%
    10:00 +30°C° 0 mm 2 mps 744 mmHg 47%
    11:00 +31°C° 0 mm 2 mps 744 mmHg 43%
    12:00 +33°C° 0 mm 3 mps 744 mmHg 39%
    13:00 +34°C° 0 mm 3 mps 744 mmHg 35%
    14:00 +34°C° 0 mm 3 mps 744 mmHg 37%
    15:00 +33°C° 0 mm 3 mps 743 mmHg 38%
    16:00 +33°C° 0 mm 3 mps 743 mmHg 40%
    17:00 +30°C° 0 mm 3 mps 743 mmHg 44%
    18:00 +28°C° 0 mm 2 mps 743 mmHg 48%
    19:00 +27°C° 0 mm 2 mps 743 mmHg 52%
    20:00 +26°C° 0.3 mm 2 mps 743 mmHg 57%
    21:00 +24°C° 0.3 mm 2 mps 743 mmHg 62%
    22:00 +23°C° 0.3 mm 2 mps 744 mmHg 67%
    23:00 +21°C° 0 mm 2 mps 744 mmHg 71%

    Tomorrow, 21 August, Tuesday

    Time Temperature Precipitation Wind Pressure Humidity
    00:00 +21°C° 0 mm 2 mps 744 mmHg 75%
    01:00 +20°C° 0 mm 2 mps 745 mmHg 79%
    02:00 +20°C° 0 mm 2 mps 745 mmHg 81%
    03:00 +19°C° 0 mm 2 mps 745 mmHg 82%
    04:00 +19°C° 0 mm 2 mps 745 mmHg 84%
    05:00 +20°C° 0 mm 2 mps 745 mmHg 81%
    06:00 +20°C° 0 mm 2 mps 746 mmHg 78%
    07:00 +21°C° 0 mm 2 mps 746 mmHg 75%
    08:00 +23°C° 0 mm 2 mps 746 mmHg 70%
    09:00 +24°C° 0 mm 3 mps 746 mmHg 65%
    10:00 +25°C° 0 mm 3 mps 746 mmHg 59%
    11:00 +26°C° 0 mm 3 mps 746 mmHg 58%
    12:00 +26°C° 0 mm 3 mps 746 mmHg 56%
    13:00 +26°C° 0 mm 3 mps 746 mmHg 54%
    14:00 +26°C° 0 mm 3 mps 746 mmHg 54%
    15:00 +26°C° 0 mm 3 mps 746 mmHg 54%
    16:00 +26°C° 0 mm 3 mps 746 mmHg 54%
    17:00 +25°C° 0 mm 3 mps 746 mmHg 58%
    18:00 +23°C° 0 mm 2 mps 746 mmHg 62%
    19:00 +21°C° 0 mm 2 mps 746 mmHg 66%
    20:00 +20°C° 0 mm 2 mps 747 mmHg 68%
    21:00 +20°C° 0 mm 1 mps 747 mmHg 70%
    22:00 +19°C° 0 mm 1 mps 747 mmHg 72%
    23:00 +19°C° 0 mm 1 mps 747 mmHg 72%

    Day after tomorrow, 22 August, Wednesday

    Time Temperature Precipitation Wind Pressure Humidity
    00:00 +18°C° 0 mm 1 mps 747 mmHg 73%
    01:00 +18°C° 0 mm 1 mps 747 mmHg 73%
    02:00 +16°C° 0 mm 1 mps 747 mmHg 74%
    03:00 +16°C° 0 mm 1 mps 747 mmHg 75%
    04:00 +15°C° 0 mm 1 mps 747 mmHg 77%
    05:00 +16°C° 0 mm 1 mps 747 mmHg 73%
    06:00 +18°C° 0 mm 2 mps 748 mmHg 69%
    07:00 +19°C° 0 mm 2 mps 748 mmHg 65%
    08:00 +20°C° 0 mm 2 mps 748 mmHg 59%
    09:00 +22°C° 0 mm 3 mps 748 mmHg 53%
    10:00 +25°C° 0 mm 3 mps 748 mmHg 47%
    11:00 +25°C° 0 mm 3 mps 748 mmHg 45%
    12:00 +26°C° 0 mm 3 mps 747 mmHg 44%
    13:00 +27°C° 0 mm 3 mps 747 mmHg 42%
    14:00 +27°C° 0 mm 3 mps 747 mmHg 43%
    15:00 +27°C° 0 mm 3 mps 746 mmHg 44%
    16:00 +27°C° 0 mm 3 mps 746 mmHg 46%
    17:00 +25°C° 0 mm 3 mps 746 mmHg 53%
    18:00 +22°C° 0 mm 3 mps 746 mmHg 61%
    19:00 +20°C° 0 mm 2 mps 746 mmHg 68%
    20:00 +19°C° 0 mm 2 mps 746 mmHg 73%
    21:00 +18°C° 0 mm 2 mps 746 mmHg 77%
    22:00 +18°C° 0 mm 2 mps 746 mmHg 82%
    23:00 +17°C° 0 mm 2 mps 746 mmHg 84%

    23 August, Thursday

    Time Temperature Precipitation Wind Pressure Humidity
    00:00 +17°C° 0 mm 2 mps 746 mmHg 86%
    01:00 +16°C° 0 mm 2 mps 746 mmHg 88%
    02:00 +16°C° 0 mm 2 mps 745 mmHg 89%
    03:00 +16°C° 0 mm 2 mps 745 mmHg 89%
    04:00 +15°C° 0 mm 2 mps 745 mmHg 90%
    05:00 +18°C° 0 mm 1 mps 745 mmHg 85%
    06:00 +19°C° 0 mm 1 mps 745 mmHg 79%
    07:00 +21°C° 0 mm 1 mps 745 mmHg 73%
    08:00 +23°C° 0 mm 1 mps 745 mmHg 66%
    09:00 +25°C° 0 mm 1 mps 745 mmHg 59%
    10:00 +28°C° 0 mm 1 mps 745 mmHg 52%
    11:00 +29°C° 0 mm 1 mps 744 mmHg 48%
    12:00 +30°C° 0 mm 1 mps 744 mmHg 44%
    13:00 +31°C° 0 mm 1 mps 744 mmHg 41%
    14:00 +31°C° 0 mm 1 mps 743 mmHg 41%
    15:00 +31°C° 0 mm 1 mps 743 mmHg 41%
    16:00 +31°C° 0 mm 1 mps 743 mmHg 41%
    17:00 +29°C° 0 mm 1 mps 743 mmHg 46%
    18:00 +28°C° 0 mm 1 mps 742 mmHg 52%
    19:00 +26°C° 0 mm 2 mps 742 mmHg 57%
    20:00 +25°C° 0 mm 2 mps 742 mmHg 61%
    21:00 +24°C° 0 mm 2 mps 742 mmHg 65%
    22:00 +23°C° 0 mm 2 mps 742 mmHg 68%
    23:00 +23°C° 0 mm 2 mps 742 mmHg 69%

    24 August, Friday

    Time Temperature Precipitation Wind Pressure Humidity
    00:00 +23°C° 0 mm 2 mps 742 mmHg 70%
    01:00 +21°C° 0 mm 2 mps 742 mmHg 70%
    02:00 +21°C° 0 mm 2 mps 741 mmHg 70%
    03:00 +21°C° 0 mm 2 mps 741 mmHg 70%
    04:00 +21°C° 0 mm 2 mps 741 mmHg 70%
    05:00 +23°C° 0 mm 2 mps 741 mmHg 67%
    06:00 +24°C° 0 mm 2 mps 741 mmHg 64%
    07:00 +25°C° 0 mm 2 mps 741 mmHg 61%
    08:00 +27°C° 0 mm 3 mps 741 mmHg 56%
    09:00 +29°C° 0 mm 3 mps 741 mmHg 51%
    10:00 +32°C° 0 mm 4 mps 741 mmHg 45%
    11:00 +32°C° 0 mm 4 mps 741 mmHg 44%
    12:00 +32°C° 0 mm 4 mps 740 mmHg 42%
    13:00 +33°C° 0 mm 4 mps 740 mmHg 41%
    14:00 +32°C° 0 mm 4 mps 740 mmHg 43%
    15:00 +30°C° 0 mm 4 mps 740 mmHg 46%
    16:00 +30°C° 0 mm 4 mps 739 mmHg 48%
    17:00 +28°C° 0.1 mm 3 mps 739 mmHg 54%
    18:00 +26°C° 0.1 mm 3 mps 739 mmHg 59%
    19:00 +25°C° 0.1 mm 2 mps 739 mmHg 64%
    20:00 +24°C° 0.1 mm 2 mps 739 mmHg 70%
    21:00 +23°C° 0.1 mm 2 mps 739 mmHg 75%
    22:00 +21°C° 0.1 mm 2 mps 739 mmHg 81%
    23:00 +21°C° 1.3 mm 1 mps 739 mmHg 84%

    25 August, Saturday

    Time Temperature Precipitation Wind Pressure Humidity
    00:00 +21°C° 1.3 mm 1 mps 739 mmHg 88%
    01:00 +21°C° 1.3 mm 1 mps 739 mmHg 91%
    02:00 +21°C° 0.7 mm 1 mps 739 mmHg 92%
    03:00 +20°C° 0.7 mm 1 mps 739 mmHg 92%
    04:00 +20°C° 0.7 mm 1 mps 738 mmHg 93%
    05:00 +21°C° 0.6 mm 1 mps 739 mmHg 90%
    06:00 +21°C° 0.6 mm 1 mps 739 mmHg 88%
    07:00 +21°C° 0.6 mm 2 mps 739 mmHg 85%
    08:00 +20°C° 0.8 mm 3 mps 739 mmHg 85%
    09:00 +20°C° 0.8 mm 5 mps 739 mmHg 85%
    10:00 +18°C° 0.8 mm 7 mps 739 mmHg 85%
    11:00 +17°C° 0.3 mm 6 mps 740 mmHg 85%
    12:00 +17°C° 0.3 mm 6 mps 740 mmHg 84%
    13:00 +16°C° 0.3 mm 5 mps 741 mmHg 84%
    14:00 +16°C° 0.3 mm 5 mps 741 mmHg 85%
    15:00 +15°C° 0.3 mm 4 mps 741 mmHg 87%
    16:00 +16°C° 0.3 mm 3 mps 741 mmHg 88%
    17:00 +16°C° 0 mm 3 mps 741 mmHg 89%
    18:00 +15°C° 0 mm 2 mps 742 mmHg 90%
    19:00 +15°C° 0 mm 2 mps 742 mmHg 91%
    20:00 +14°C° 0 mm 2 mps 742 mmHg 92%
    21:00 +14°C° 0 mm 1 mps 742 mmHg 93%
    22:00 +13°C° 0 mm 1 mps 742 mmHg 94%
    23:00 +13°C° 0 mm 1 mps 742 mmHg 94%
    Show more